Year,Month,Day,Hour,Minute,Value (Times are PST for temperature in C)
2009,08,26,07,15,13.70
2009,08,26,07,16,13.80
2009,08,26,07,17,13.80
2009,08,26,07,18,13.90
2009,08,26,07,19,13.90
2009,08,26,07,20,14.00
2009,08,26,07,21,14.10
2009,08,26,07,22,14.10
2009,08,26,07,23,14.20
2009,08,26,07,24,14.30
2009,08,26,07,25,14.30
2009,08,26,07,26,14.40
2009,08,26,07,27,14.40
2009,08,26,07,28,14.50
2009,08,26,07,29,14.60
2009,08,26,07,30,14.60
2009,08,26,07,31,14.60
2009,08,26,07,32,14.70
2009,08,26,07,33,14.70
2009,08,26,07,34,14.70
2009,08,26,07,35,14.80
2009,08,26,07,36,14.80
2009,08,26,07,37,14.80
2009,08,26,07,38,14.90
2009,08,26,07,39,15.00
2009,08,26,07,40,15.00
2009,08,26,07,41,15.00
2009,08,26,07,42,15.00
2009,08,26,07,43,15.00
2009,08,26,07,44,15.00
2009,08,26,07,45,15.10
2009,08,26,07,46,15.20
2009,08,26,07,47,15.30
2009,08,26,07,48,15.30
2009,08,26,07,49,15.30
2009,08,26,07,50,15.30
2009,08,26,07,51,15.30
2009,08,26,07,52,15.40
2009,08,26,07,53,15.40
2009,08,26,07,54,15.40
2009,08,26,07,55,15.40
2009,08,26,07,56,15.40
2009,08,26,07,57,15.40
2009,08,26,07,58,15.40
2009,08,26,07,59,15.40
2009,08,26,08,00,15.30
2009,08,26,08,01,15.30
2009,08,26,08,02,15.30
2009,08,26,08,03,15.30
2009,08,26,08,04,15.30
2009,08,26,08,05,15.30
2009,08,26,08,06,15.30
2009,08,26,08,07,15.30
2009,08,26,08,08,15.30
2009,08,26,08,09,15.30
2009,08,26,08,10,15.30
2009,08,26,08,11,15.30
2009,08,26,08,12,15.20
2009,08,26,08,13,15.20
2009,08,26,08,14,15.20
2009,08,26,08,15,15.20
2009,08,26,08,16,15.20
2009,08,26,08,17,15.10
2009,08,26,08,18,15.10
2009,08,26,08,19,15.00
2009,08,26,08,20,15.00
2009,08,26,08,21,15.00
2009,08,26,08,22,15.00
2009,08,26,08,23,15.00
2009,08,26,08,24,15.00
2009,08,26,08,25,15.00
2009,08,26,08,26,15.00
2009,08,26,08,27,15.00
2009,08,26,08,28,15.00
2009,08,26,08,29,14.90
2009,08,26,08,30,14.90
2009,08,26,08,31,15.00
2009,08,26,08,32,15.00
2009,08,26,08,33,15.00
2009,08,26,08,34,15.00
2009,08,26,08,35,15.00
2009,08,26,08,36,15.00
2009,08,26,08,37,15.10
2009,08,26,08,38,15.20
2009,08,26,08,39,15.30
2009,08,26,08,40,15.30
2009,08,26,08,41,15.40
2009,08,26,08,42,15.50
2009,08,26,08,43,15.60
2009,08,26,08,44,15.60
2009,08,26,08,45,15.70
2009,08,26,08,46,15.80
2009,08,26,08,47,15.80
2009,08,26,08,48,15.90
2009,08,26,08,49,15.90
2009,08,26,08,50,16.00
2009,08,26,08,51,16.00
2009,08,26,08,52,16.10
2009,08,26,08,53,16.10
2009,08,26,08,54,16.20
2009,08,26,08,55,16.30
2009,08,26,08,56,16.40
2009,08,26,08,57,16.40
2009,08,26,08,58,16.50
2009,08,26,08,59,16.60
2009,08,26,09,00,16.70
2009,08,26,09,01,16.70
2009,08,26,09,02,16.70
2009,08,26,09,03,16.70
2009,08,26,09,04,16.70
2009,08,26,09,05,16.70
2009,08,26,09,06,16.70
2009,08,26,09,07,16.70
2009,08,26,09,08,16.70
2009,08,26,09,09,16.70
2009,08,26,09,10,16.60
2009,08,26,09,11,16.60
2009,08,26,09,12,16.60
2009,08,26,09,13,16.50
2009,08,26,09,14,16.50
2009,08,26,09,15,16.50
2009,08,26,09,16,16.40
2009,08,26,09,17,16.40
2009,08,26,09,18,16.40
2009,08,26,09,19,16.40
2009,08,26,09,20,16.30
2009,08,26,09,21,16.30
2009,08,26,09,22,16.30
2009,08,26,09,23,16.30
2009,08,26,09,24,16.30
2009,08,26,09,25,16.30
2009,08,26,09,26,16.30
2009,08,26,09,27,16.20
2009,08,26,09,28,16.20
2009,08,26,09,29,16.10
2009,08,26,09,30,16.10
2009,08,26,09,31,16.20
2009,08,26,09,32,16.20
2009,08,26,09,33,16.20
2009,08,26,09,34,16.20
2009,08,26,09,35,16.30
2009,08,26,09,36,16.30
2009,08,26,09,37,16.40
2009,08,26,09,38,16.40
2009,08,26,09,39,16.40
2009,08,26,09,40,16.30
2009,08,26,09,41,16.30
2009,08,26,09,42,16.30
2009,08,26,09,43,16.20
2009,08,26,09,44,16.20
2009,08,26,09,45,16.20
2009,08,26,09,46,16.20
2009,08,26,09,47,16.20
2009,08,26,09,48,16.20
2009,08,26,09,49,16.20
2009,08,26,09,50,16.20
2009,08,26,09,51,16.20
2009,08,26,09,52,16.30
2009,08,26,09,53,16.40
2009,08,26,09,54,16.40
2009,08,26,09,55,16.50
2009,08,26,09,56,16.50
2009,08,26,09,57,16.50
2009,08,26,09,58,16.50
2009,08,26,09,59,16.50
2009,08,26,10,00,16.50
2009,08,26,10,01,16.60
2009,08,26,10,02,16.50
2009,08,26,10,03,16.60
2009,08,26,10,04,16.60
2009,08,26,10,05,16.60
2009,08,26,10,06,16.60
2009,08,26,10,07,16.70
2009,08,26,10,08,16.70
2009,08,26,10,09,16.70
2009,08,26,10,10,16.70
2009,08,26,10,11,16.70
2009,08,26,10,12,16.80
2009,08,26,10,13,16.80
2009,08,26,10,14,16.90
2009,08,26,10,15,16.90
2009,08,26,10,16,16.90
2009,08,26,10,17,16.90
2009,08,26,10,18,16.90
2009,08,26,10,19,16.90
2009,08,26,10,20,16.90
2009,08,26,10,21,16.90
2009,08,26,10,22,16.90
2009,08,26,10,23,16.90
2009,08,26,10,24,16.90
2009,08,26,10,25,16.90
2009,08,26,10,26,16.90
2009,08,26,10,27,16.90
2009,08,26,10,28,16.90
2009,08,26,10,29,17.00
2009,08,26,10,30,17.10
2009,08,26,10,31,17.10
2009,08,26,10,32,17.20
2009,08,26,10,33,17.20
2009,08,26,10,34,17.30
2009,08,26,10,35,17.30
2009,08,26,10,36,17.30
2009,08,26,10,37,17.40
2009,08,26,10,38,17.40
2009,08,26,10,39,17.40
2009,08,26,10,40,17.40
2009,08,26,10,41,17.40
2009,08,26,10,42,17.40
2009,08,26,10,43,17.40
2009,08,26,10,44,17.40
2009,08,26,10,45,17.40
2009,08,26,10,46,17.50
2009,08,26,10,47,17.50
2009,08,26,10,48,17.60
2009,08,26,10,49,17.60
2009,08,26,10,50,17.60
2009,08,26,10,51,17.60
2009,08,26,10,52,17.60
2009,08,26,10,53,17.60
2009,08,26,10,54,17.60
2009,08,26,10,55,17.60
2009,08,26,10,56,17.50
2009,08,26,10,57,17.40
2009,08,26,10,58,17.30
2009,08,26,10,59,17.20
2009,08,26,11,00,17.10
2009,08,26,11,01,17.10
2009,08,26,11,02,17.10
2009,08,26,11,03,17.10
2009,08,26,11,04,17.20
2009,08,26,11,05,17.20
2009,08,26,11,06,17.20
2009,08,26,11,07,17.30
2009,08,26,11,08,17.30
2009,08,26,11,09,17.30
2009,08,26,11,10,17.30
2009,08,26,11,11,17.30
2009,08,26,11,12,17.20
2009,08,26,11,13,17.10
2009,08,26,11,14,17.00
2009,08,26,11,15,17.00
2009,08,26,11,16,16.90
2009,08,26,11,17,16.80
2009,08,26,11,18,16.80
2009,08,26,11,19,16.80
2009,08,26,11,20,16.80
2009,08,26,11,21,16.80
2009,08,26,11,22,16.80
2009,08,26,11,23,16.80
2009,08,26,11,24,16.90
2009,08,26,11,25,16.90
2009,08,26,11,26,16.90
2009,08,26,11,27,17.00
2009,08,26,11,28,17.00
2009,08,26,11,29,17.10
2009,08,26,11,30,17.10
2009,08,26,11,31,17.20
2009,08,26,11,32,17.20
2009,08,26,11,33,17.30
2009,08,26,11,34,17.30
2009,08,26,11,35,17.30
2009,08,26,11,36,17.40
2009,08,26,11,37,17.40
2009,08,26,11,38,17.40
2009,08,26,11,39,17.40
2009,08,26,11,40,17.50
2009,08,26,11,41,17.50
2009,08,26,11,42,17.40
2009,08,26,11,43,17.40
2009,08,26,11,44,17.40
2009,08,26,11,45,17.30
2009,08,26,11,46,17.30
2009,08,26,11,47,17.20
2009,08,26,11,48,17.20
2009,08,26,11,49,17.20
2009,08,26,11,50,17.20
2009,08,26,11,51,17.20
2009,08,26,11,52,17.20
2009,08,26,11,53,17.30
2009,08,26,11,54,17.30
2009,08,26,11,55,17.40
2009,08,26,11,56,17.50
2009,08,26,11,57,17.60
2009,08,26,11,58,17.70
2009,08,26,11,59,17.80
2009,08,26,12,00,17.80
2009,08,26,12,01,17.90
2009,08,26,12,02,17.90
2009,08,26,12,03,17.90
2009,08,26,12,04,17.90
2009,08,26,12,05,18.00
2009,08,26,12,06,18.00
2009,08,26,12,07,18.10
2009,08,26,12,08,18.20
2009,08,26,12,09,18.20
2009,08,26,12,10,18.20
2009,08,26,12,11,18.20
2009,08,26,12,12,18.20
2009,08,26,12,13,18.20
2009,08,26,12,14,18.20
2009,08,26,12,15,18.30
2009,08,26,12,16,18.30
2009,08,26,12,17,18.40
2009,08,26,12,18,18.50
2009,08,26,12,19,18.50
2009,08,26,12,20,18.50
2009,08,26,12,21,18.50
2009,08,26,12,22,18.40
2009,08,26,12,23,18.40
2009,08,26,12,24,18.30
2009,08,26,12,25,18.30
2009,08,26,12,26,18.20
2009,08,26,12,27,18.10
2009,08,26,12,28,18.10
2009,08,26,12,29,18.10
2009,08,26,12,30,18.10
2009,08,26,12,31,18.20
2009,08,26,12,32,18.20
2009,08,26,12,33,18.20
2009,08,26,12,34,18.20
2009,08,26,12,35,18.20
2009,08,26,12,36,18.30
2009,08,26,12,37,18.30
2009,08,26,12,38,18.40
2009,08,26,12,39,18.30
2009,08,26,12,40,18.30
2009,08,26,12,41,18.20
2009,08,26,12,42,18.30
2009,08,26,12,43,18.30
2009,08,26,12,44,18.20
2009,08,26,12,45,18.20
2009,08,26,12,46,18.30
2009,08,26,12,47,18.30
2009,08,26,12,48,18.30
2009,08,26,12,49,18.30
2009,08,26,12,50,18.30
2009,08,26,12,51,18.30
2009,08,26,12,52,18.30
2009,08,26,12,53,18.30
2009,08,26,12,54,18.30
2009,08,26,12,55,18.40
2009,08,26,12,56,18.40
2009,08,26,12,57,18.50
2009,08,26,12,58,18.60
2009,08,26,12,59,18.70
2009,08,26,13,00,18.80
2009,08,26,13,01,18.90
2009,08,26,13,02,19.00
2009,08,26,13,03,19.10
2009,08,26,13,04,19.10
2009,08,26,13,05,19.10
2009,08,26,13,06,19.10
2009,08,26,13,07,19.00
2009,08,26,13,08,18.90
2009,08,26,13,09,18.80
2009,08,26,13,10,18.80
2009,08,26,13,11,18.60
2009,08,26,13,12,18.50
2009,08,26,13,13,18.50
2009,08,26,13,14,18.40
2009,08,26,13,15,18.40
2009,08,26,13,16,18.40
2009,08,26,13,17,18.40
2009,08,26,13,18,18.40
2009,08,26,13,19,18.40
2009,08,26,13,20,18.40
2009,08,26,13,21,18.40
2009,08,26,13,22,18.40
2009,08,26,13,23,18.40
2009,08,26,13,24,18.40
2009,08,26,13,25,18.50
2009,08,26,13,26,18.50
2009,08,26,13,27,18.60
2009,08,26,13,28,18.60
2009,08,26,13,29,18.60
2009,08,26,13,30,18.60
2009,08,26,13,31,18.60
2009,08,26,13,32,18.60
2009,08,26,13,33,18.50
2009,08,26,13,34,18.50
2009,08,26,13,35,18.40
2009,08,26,13,36,18.40
2009,08,26,13,37,18.30
2009,08,26,13,38,18.30
2009,08,26,13,39,18.30
2009,08,26,13,40,18.30
2009,08,26,13,41,18.30
2009,08,26,13,42,18.40
2009,08,26,13,43,18.40
2009,08,26,13,44,18.30
2009,08,26,13,45,18.30
2009,08,26,13,46,18.40
2009,08,26,13,47,18.40
2009,08,26,13,48,18.50
2009,08,26,13,49,18.50
2009,08,26,13,50,18.60
2009,08,26,13,51,18.60
2009,08,26,13,52,18.60
2009,08,26,13,53,18.70
2009,08,26,13,54,18.70
2009,08,26,13,55,18.80
2009,08,26,13,56,18.80
2009,08,26,13,57,18.80
2009,08,26,13,58,18.80
2009,08,26,13,59,18.80
2009,08,26,14,00,18.80
2009,08,26,14,01,18.80
2009,08,26,14,02,18.90
2009,08,26,14,03,18.90
2009,08,26,14,04,19.00
2009,08,26,14,05,19.00
2009,08,26,14,06,19.10
2009,08,26,14,07,19.10
2009,08,26,14,08,19.10
2009,08,26,14,09,19.10
2009,08,26,14,10,19.10
2009,08,26,14,11,19.20
2009,08,26,14,12,19.20
2009,08,26,14,13,19.20
2009,08,26,14,14,19.30
2009,08,26,14,15,19.30
2009,08,26,14,16,19.30
2009,08,26,14,17,19.30
2009,08,26,14,18,19.30
2009,08,26,14,19,19.30
2009,08,26,14,20,19.30
2009,08,26,14,21,19.30
2009,08,26,14,22,19.20
2009,08,26,14,23,19.20
2009,08,26,14,24,19.20
2009,08,26,14,25,19.20
2009,08,26,14,26,19.10
2009,08,26,14,27,19.20
2009,08,26,14,28,19.20
2009,08,26,14,29,19.20
2009,08,26,14,30,19.20
2009,08,26,14,31,19.20
2009,08,26,14,32,19.30
2009,08,26,14,33,19.30
2009,08,26,14,34,19.30
2009,08,26,14,35,19.20
2009,08,26,14,36,19.30
2009,08,26,14,37,19.30
2009,08,26,14,38,19.30
2009,08,26,14,39,19.30
2009,08,26,14,40,19.30
2009,08,26,14,41,19.40
2009,08,26,14,42,19.40
2009,08,26,14,43,19.50
2009,08,26,14,44,19.50
2009,08,26,14,45,19.60
2009,08,26,14,46,19.70
2009,08,26,14,47,19.80
2009,08,26,14,48,19.90
2009,08,26,14,49,20.00
2009,08,26,14,50,20.10
2009,08,26,14,51,20.10
2009,08,26,14,52,20.20
2009,08,26,14,53,20.30
2009,08,26,14,54,20.30
2009,08,26,14,55,20.40
2009,08,26,14,56,20.40
2009,08,26,14,57,20.50
2009,08,26,14,58,20.60
2009,08,26,14,59,20.60
2009,08,26,15,00,20.70
2009,08,26,15,01,20.70
2009,08,26,15,02,20.80
2009,08,26,15,03,20.80
2009,08,26,15,04,20.80
2009,08,26,15,05,20.60
2009,08,26,15,06,20.50
2009,08,26,15,07,20.40
2009,08,26,15,08,20.30
2009,08,26,15,09,20.20
2009,08,26,15,10,20.10
2009,08,26,15,11,20.00
2009,08,26,15,12,19.90
2009,08,26,15,13,19.80
2009,08,26,15,14,19.70
2009,08,26,15,15,19.60
2009,08,26,15,16,19.50
2009,08,26,15,17,19.40
2009,08,26,15,18,19.40
2009,08,26,15,19,19.30
2009,08,26,15,20,19.20
2009,08,26,15,21,19.20
2009,08,26,15,22,19.10
2009,08,26,15,23,19.00
2009,08,26,15,24,18.90
2009,08,26,15,25,18.90
2009,08,26,15,26,18.80
2009,08,26,15,27,18.80
2009,08,26,15,28,18.80
2009,08,26,15,29,18.70
2009,08,26,15,30,18.70
2009,08,26,15,31,18.70
2009,08,26,15,32,18.60
2009,08,26,15,33,18.60
2009,08,26,15,34,18.60
2009,08,26,15,35,18.50
2009,08,26,15,36,18.50
2009,08,26,15,37,18.50
2009,08,26,15,38,18.60
2009,08,26,15,39,18.60
2009,08,26,15,40,18.60
2009,08,26,15,41,18.70
2009,08,26,15,42,18.70
2009,08,26,15,43,18.70
2009,08,26,15,44,18.80
2009,08,26,15,45,18.80
2009,08,26,15,46,18.90
2009,08,26,15,47,18.90
2009,08,26,15,48,18.90
2009,08,26,15,49,18.90
2009,08,26,15,50,18.90
2009,08,26,15,51,18.90
2009,08,26,15,52,18.80
2009,08,26,15,53,18.80
2009,08,26,15,54,18.80
2009,08,26,15,55,18.70
2009,08,26,15,56,18.70
2009,08,26,15,57,18.70
2009,08,26,15,58,18.70
2009,08,26,15,59,18.70
2009,08,26,16,00,18.70
2009,08,26,16,01,18.70
2009,08,26,16,02,18.70
2009,08,26,16,03,18.70
2009,08,26,16,04,18.70
2009,08,26,16,05,18.80
2009,08,26,16,06,18.80
2009,08,26,16,07,18.80
2009,08,26,16,08,18.80
2009,08,26,16,09,18.80
2009,08,26,16,10,18.80
2009,08,26,16,11,18.90
2009,08,26,16,12,18.90
2009,08,26,16,13,19.00
2009,08,26,16,14,19.00
2009,08,26,16,15,19.10
2009,08,26,16,16,19.20
2009,08,26,16,17,19.20
2009,08,26,16,18,19.30
2009,08,26,16,19,19.30
2009,08,26,16,20,19.30
2009,08,26,16,21,19.30
2009,08,26,16,22,19.30
2009,08,26,16,23,19.20
2009,08,26,16,24,19.20
2009,08,26,16,25,19.20
2009,08,26,16,26,19.20
2009,08,26,16,27,19.20
2009,08,26,16,28,19.20
2009,08,26,16,29,19.20
2009,08,26,16,30,19.20
2009,08,26,16,31,19.20
2009,08,26,16,32,19.20
2009,08,26,16,33,19.20
2009,08,26,16,34,19.20
2009,08,26,16,35,19.30
2009,08,26,16,36,19.30
2009,08,26,16,37,19.30
2009,08,26,16,38,19.30
2009,08,26,16,39,19.30
2009,08,26,16,40,19.30
2009,08,26,16,41,19.30
2009,08,26,16,42,19.40
2009,08,26,16,43,19.40
2009,08,26,16,44,19.40
2009,08,26,16,45,19.30
2009,08,26,16,46,19.30
2009,08,26,16,47,19.30
2009,08,26,16,48,19.30
2009,08,26,16,49,19.30
2009,08,26,16,50,19.30
2009,08,26,16,51,19.20
2009,08,26,16,52,19.20
2009,08,26,16,53,19.20
2009,08,26,16,54,19.20
2009,08,26,16,55,19.10
2009,08,26,16,56,19.10
2009,08,26,16,57,19.00
2009,08,26,16,58,19.00
2009,08,26,16,59,18.90
2009,08,26,17,00,18.80
2009,08,26,17,01,18.70
2009,08,26,17,02,18.70
2009,08,26,17,03,18.60
2009,08,26,17,04,18.60
2009,08,26,17,05,18.50
2009,08,26,17,06,18.50
2009,08,26,17,07,18.50
2009,08,26,17,08,18.40
2009,08,26,17,09,18.40
2009,08,26,17,10,18.40
2009,08,26,17,11,18.30
2009,08,26,17,12,18.30
2009,08,26,17,13,18.30
2009,08,26,17,14,18.30
2009,08,26,17,15,18.30
2009,08,26,17,16,18.30
2009,08,26,17,17,18.30
2009,08,26,17,18,18.30
2009,08,26,17,19,18.20
2009,08,26,17,20,18.20
2009,08,26,17,21,18.20
2009,08,26,17,22,18.20
2009,08,26,17,23,18.20
2009,08,26,17,24,18.10
2009,08,26,17,25,18.10
2009,08,26,17,26,18.10
2009,08,26,17,27,18.10
2009,08,26,17,28,18.10
2009,08,26,17,29,18.10
2009,08,26,17,30,18.10
2009,08,26,17,31,18.10
2009,08,26,17,32,18.10
2009,08,26,17,33,18.10
2009,08,26,17,34,18.20
2009,08,26,17,35,18.20
2009,08,26,17,36,18.20
2009,08,26,17,37,18.30
2009,08,26,17,38,18.40
2009,08,26,17,39,18.40
2009,08,26,17,40,18.50
2009,08,26,17,41,18.60
2009,08,26,17,42,18.70
2009,08,26,17,43,18.70
2009,08,26,17,44,18.80
2009,08,26,17,45,18.80
2009,08,26,17,46,18.80
2009,08,26,17,47,18.80
2009,08,26,17,48,18.80
2009,08,26,17,49,18.80
2009,08,26,17,50,18.80
2009,08,26,17,51,18.80
2009,08,26,17,52,18.80
2009,08,26,17,53,18.80
2009,08,26,17,54,18.80
2009,08,26,17,55,18.80
2009,08,26,17,56,18.90
2009,08,26,17,57,18.90
2009,08,26,17,58,18.90
2009,08,26,17,59,18.90
2009,08,26,18,00,18.90
2009,08,26,18,01,18.90
2009,08,26,18,02,18.90
2009,08,26,18,03,18.90
2009,08,26,18,04,18.90
2009,08,26,18,05,18.90
2009,08,26,18,06,18.90
2009,08,26,18,07,18.90
2009,08,26,18,08,19.00
2009,08,26,18,09,19.00
2009,08,26,18,10,19.00
2009,08,26,18,11,19.00
2009,08,26,18,12,19.00
2009,08,26,18,13,19.00
2009,08,26,18,14,19.00
2009,08,26,18,15,19.00
2009,08,26,18,16,19.00
2009,08,26,18,17,19.00
2009,08,26,18,18,19.00
2009,08,26,18,19,19.00
2009,08,26,18,20,19.00
2009,08,26,18,21,18.90
2009,08,26,18,22,18.90
2009,08,26,18,23,18.90
2009,08,26,18,24,18.90
2009,08,26,18,25,18.90
2009,08,26,18,26,18.90
2009,08,26,18,27,18.90
2009,08,26,18,28,18.90
2009,08,26,18,29,18.90
2009,08,26,18,30,19.00
2009,08,26,18,31,19.00
2009,08,26,18,32,19.00
2009,08,26,18,33,19.00
2009,08,26,18,34,19.00
2009,08,26,18,35,19.00
2009,08,26,18,36,19.00
2009,08,26,18,37,19.10
2009,08,26,18,38,19.10
2009,08,26,18,39,19.10
2009,08,26,18,40,19.10
2009,08,26,18,41,19.10
2009,08,26,18,42,19.10
2009,08,26,18,43,19.10
2009,08,26,18,44,19.00
2009,08,26,18,45,19.00
2009,08,26,18,46,19.00
2009,08,26,18,47,19.00
2009,08,26,18,48,19.00
2009,08,26,18,49,19.00
2009,08,26,18,50,19.00
2009,08,26,18,51,19.00
2009,08,26,18,52,19.00
2009,08,26,18,53,19.00
2009,08,26,18,54,19.00
2009,08,26,18,55,19.00
